Location: *
(34.8620°S, 39.3380°E)
Time: 12:13:53
(UTC+00:00)

SAOCOM 1-B - Visible Passes

Search period start: 29 May 2022 00:00
Search period end: 08 June 2022 00:00
Orbit: 621 x 623 km, 97.9° (Epoch: 29 May)

Date Brightness Start Highest point End Pass type
(mag) Time Alt. Az. Time Alt. Az. Time Alt. Az.
29 May ? 02:58:57 10° SSE 03:02:57 33° E 03:06:53 10° NNE visible
29 May ? 15:26:18 10° NNW 15:30:15 33° W 15:34:15 10° SSW visible
30 May ? 03:16:41 10° SSE 03:21:01 54° E 03:25:17 10° N visible
30 May ? 15:45:03 10° NW 15:48:21 21° W 15:51:42 10° SW visible
31 May ? 03:34:36 10° SSE 03:39:03 90° WNW 03:43:24 10° NNW visible
31 May ? 16:04:30 10° WNW 16:06:31 13° W 16:08:32 10° WSW visible
01 Jun ? 02:19:36 10° ESE 02:20:34 11° E 02:21:32 10° ENE visible
01 Jun ? 14:43:46 10° NNE 14:48:07 75° ESE 14:52:32 10° S visible
02 Jun ? 02:35:46 10° SE 02:38:44 18° E 02:41:41 10° NE visible
02 Jun ? 15:01:47 10° N 15:06:07 66° WNW 15:10:30 10° SSW visible
03 Jun ? 02:53:03 10° SE 02:56:52 28° E 03:00:36 10° NNE visible
03 Jun ? 15:20:05 10° NNW 15:24:10 39° W 15:28:19 10° SSW visible
04 Jun ? 03:10:42 10° SSE 03:14:56 46° E 03:19:07 10° N visible
04 Jun ? 15:38:42 10° NNW 15:42:15 24° W 15:45:52 10° SW visible
05 Jun ? 03:28:33 10° SSE 03:32:58 77° E 03:37:19 10° N visible
05 Jun ? 15:57:50 10° NW 16:00:24 15° W 16:02:59 10° WSW visible
06 Jun ? 03:46:35 10° S 03:50:57 65° WSW 03:55:15 10° NNW visible
07 Jun ? 02:30:05 10° ESE 02:32:37 15° E 02:35:07 10° NE visible
07 Jun ? 14:55:41 10° N 15:00:02 78° WNW 15:04:28 10° SSW visible
